Overview Statistics Trail Chart Weather Telemetry Raw packets
 

This is the latest recevied weather packets stored in our database for station/object KQ4LLM. If no packets are shown the sender has not sent any weather packets the latest 10 day(s).

<< 31 32 33 34 35 36 37 >>
Time Temp. Humidity Pressure Rain* Wind** Luminosity Snow
1788472115 32.78° C 57% - 0 mm - - -
1788471814 33.33° C 59% - 0 mm - - -
1788471506 33.33° C 56% - 0 mm - - -
1788471201 33.89° C 56% - 0 mm - - -
1788470897 33.89° C 55% - 0 mm - - -
1788470594 33.89° C 54% - 0 mm - - -
1788470292 33.89° C 55% - 0 mm - - -
1788469984 33.89° C 55% - 0 mm - - -
1788469679 33.89° C 54% - 0 mm - - -
1788469374 34.44° C 54% - 0 mm - - -
1788469073 34.44° C 53% - 0 mm - - -
1788468773 33.89° C 54% - 0 mm - - -
1788468469 33.89° C 54% - 0 mm - - -
1788468165 33.89° C 55% - 0 mm - - -
1788467860 33.89° C 55% - 0 mm - - -
1788467556 33.89° C 53% - 0 mm - - -
1788467255 33.89° C 53% - 0 mm - - -
1788466951 33.89° C 53% - 0 mm - - -
1788466650 34.44° C 51% - 0 mm - - -
1788466346 34.44° C 50% - 0 mm - - -
1788466045 34.44° C 49% - 0 mm - - -
1788465741 35° C 48% - 0 mm - - -
1788465436 36.67° C 45% - 0 mm - - -
1788465132 36.11° C 44% - 0 mm - - -
1788464527 36.11° C 45% - 0 mm - - -

* Rain latest hour (hover to see other rain measurements)
** Current wind speed in m/s (hover to see current wind gust speed)